Lexington Weather

Lexington, Massachusetts, USA

43°F
9/19/2020 7:19am 
  • Lexington Conditions: Clear
  • Temperature: 42.8°F / 6.0°CColder 0.5°F than last hour.
  • Dew Point: 35.1°FDecreased 0.1°Fsince last hour.
  • Relative Humidity: 74%Increased 1.0% since last hour.
  • Wind: Wind from NNE NNE 1 mph, 10-min avg: 1 mph, gust: 2 mph
  • Barometer: 30.22 inRising 0.03  inHg/hr Rising Slowly
  • Visibility: 10 miles
  • Rain Today: 0.00 in
  •   
Southeast Middlesex County - Special Weather Statement
 - SEE ALL NEARBY ALERTS -

Regional Weather Roundup
for Boston / Norton, MA

        
000
ASUS41 KBOX 181704
RWRBOX

REGIONAL WEATHER ROUNDUP
NATIONAL WEATHER SERVICE BOSTON/NORTON MA
100 PM EDT FRI SEP 18 2020

NOTE:  "FAIR" INDICATES FEW OR NO CLOUDS BELOW 12,000 FEET WITH NO 
SIGNIFICANT WEATHER AND/OR OBSTRUCTIONS TO VISIBILITY.

MAZALL-181800-
EASTERN MASSACHUSETTS
  
CITY           SKY/WX    TMP DP  RH WIND       PRES   REMARKS
BOSTON         CLOUDY    62  45  53 N14       30.00S                  
BEVERLY        CLOUDY    64  46  52 NE13      29.99S                  
LAWRENCE       PTSUNNY   63  46  54 N12       30.02F                  
BEDFORD        PTSUNNY   62  45  53 N9        30.00S                  
BLUE HILL        N/A     61  46  57 NE9G21    29.98S                  
NORWOOD        CLOUDY    65  47  52 N13G18    29.99R                  
MARSHFIELD     CLOUDY    61  52  72 N8G18     29.98S                  
PLYMOUTH       CLOUDY    61  50  67 N16G29    29.97S                  
TAUNTON        CLOUDY    64  49  57 N12G22    29.97S                  
NEW BEDFORD    CLOUDY    63  50  62 N14G22    29.94F                  
$$

MAZALL-181800-
CAPE COD AND THE ISLANDS
  
CITY           SKY/WX    TMP DP  RH WIND       PRES   REMARKS
FALMOUTH       CLOUDY    59  54  82 N18G29    29.94S                  
HYANNIS        CLOUDY    61  56  83 N18G26    29.90F                  
CHATHAM        CLOUDY    61  56  83 N9G22     29.92F                  
PROVINCETOWN   CLOUDY    60  54  80 NE21G28   29.96S                  
NANTUCKET      CLOUDY    62  59  90 N24G30    29.89S                  
MARTHAS VNYRD  CLOUDY    62  54  74 N17G30    29.92S                  
$$
 
MAZALL-181800-
CENTRAL AND WESTERN MASSACHUSETTS
  
CITY           SKY/WX    TMP DP  RH WIND       PRES   REMARKS
WORCESTER      CLOUDY    59  48  67 NE9       30.01S                  
FITCHBURG      CLOUDY    63  47  55 N13G18    30.02S                  
ORANGE         CLOUDY    58  49  72 N8        30.04S                  
SPRINGFIELD    CLOUDY    58  47  66 N14       30.01S                  
WESTFIELD      CLOUDY    59  48  67 N15       30.02S                  
NORTH ADAMS    SUNNY     62  48  60 W7        30.03F                  
PITTSFIELD     MOSUNNY   64  46  52 NW12      30.01F                  
$$
 
RIZALL-181800-
RHODE ISLAND
  
CITY           SKY/WX    TMP DP  RH WIND       PRES   REMARKS
PROVIDENCE     CLOUDY    66  47  50 N21G26    29.97S                  
NEWPORT        CLOUDY    65  50  58 N18       29.94F                  
BLOCK ISLAND   MOSUNNY   61  52  72 NE18G28   29.94S                  
SMITHFIELD     CLOUDY    64  50  60 NE16      29.98S                  
WESTERLY       MOSUNNY   68  48  48 N16G23    29.94F                  
$$
 
CTZALL-181800-
CONNECTICUT
  
CITY           SKY/WX    TMP DP  RH WIND       PRES   REMARKS
BRADLEY INTL   CLOUDY    60  48  64 N8        30.01S                  
HARTFORD       CLOUDY    64  50  60 N8G21     30.00R                  
BRIDGEPORT     PTSUNNY   70  53  54 N15       29.96S                  
DANBURY        CLOUDY    64  52  64 N15       30.00S                  
GROTON         MOSUNNY   69  52  54 N16       29.93F                  
NEW HAVEN      CLOUDY    69  54  58 NE18      29.96S                  
CHESTER        NOT AVBL                                               
MERIDEN        PTSUNNY   65  51  60 N10       29.99R                  
WILLIMANTIC    CLOUDY    66  48  52 N13G20    29.98S                  
OXFORD         CLOUDY    62  53  72 NE12      30.00S                  
$$

MEZ002-015-021-024-NHZ003-005-008-011-012-014-VTZ005-008-181800-
NORTHERN NEW ENGLAND
  
CITY           SKY/WX    TMP DP  RH WIND       PRES   REMARKS
PORTLAND ME    PTSUNNY   61  38  42 N13       30.02F                  
BANGOR ME      PTSUNNY   56  38  50 N8        30.03F                  
CONCORD NH     CLOUDY    61  45  55 NE7       30.02F                  
MANCHESTER NH  CLOUDY    60  40  47 N13       30.01F                  
NASHUA NH      CLOUDY    61  45  55 N10       30.03S                  
PORTSMOUTH NH  CLOUDY    63  34  34 N9        29.99                   
JAFFREY NH     CLOUDY    55  48  77 VRB6      30.03F                  
KEENE NH       PTSUNNY   59  47  64 N6        30.03F                  
BURLINGTON VT  MOSUNNY   60  30  32 N15       30.13S                  
MT. WASHINGTON PTSUNNY   34  28  80 NW7         N/A  WCI  28          
$$

NYZ052-076-181800-
EASTERN NEW YORK
  
CITY           SKY/WX    TMP DP  RH WIND       PRES   REMARKS
ALBANY         MOSUNNY   60  42  51 N12       30.07F                  
NEW YORK CITY  CLOUDY    69  54  58 N15       29.96S                  
$$
 
ANZALL-181800-
MARINE OBSERVATIONS
  
STATION/POSITION TIME  TEMP    WIND        PRES    VSBY  WAVE
                       AIR SEA DIR/SP/G                  HT/PER
                 (UTC) (F)     (DEG/KT/KT) (MB)    (MI)  (FT/S)
BOSTON BUOY      1650   58 63   20/ 19/ 23 1014.0R         6/ 7
BUZZARDS BAY     1600           30/ 24/ 26 1014.1S
NANTUCKET SOUND  1650      70   10/ 21/ 27   N/A           3/ 4
MASS BAY-STELLWA 1604   57      40/ 21/ 25 1012.9F  1 7/8  7/ 6
ISLE OF SHOALS   1600   55      20/ 20/ 22 1015.6F
S OF BLOCK IS    1626      70                N/A           6/ 6
$$

......................KEY.........................
  SKY/WX - SKY CONDITION/PRESENT WEATHER
  TMP    - TEMPERATURE IN FAHRENHEIT
  DWPT   - DEWPOINT IN FAHRENHEIT
  RH     - RELATIVE HUMIDITY IN PERCENT
  WIND   - DIRECTION AND SPEED IN MPH
  PRES   - MEAN SEA LEVEL PRESSURE IN INCHES OF HG
  WCI    - WIND CHILL INDEX
  VSB    - VISIBILITY IN MILES
  HX     - HEAT INDEX
  TC     - TEMPERATURE IN CELSIUS
  VRB    - VARIABLE WIND DIRECTION
  N/A    - NOT AVAILABLE
  
      

Other recent Regional Weather Roundups

Sat Sep 19, 7:04am

Sat Sep 19, 6:04am

Sat Sep 19, 5:04am

Sat Sep 19, 4:04am

Sat Sep 19, 3:04am

Sat Sep 19, 2:04am

Sat Sep 19, 1:04am

Sat Sep 19, 12:04am

Fri Sep 18, 11:05pm

Fri Sep 18, 10:04pm

Fri Sep 18, 9:04pm

Fri Sep 18, 8:04pm

Fri Sep 18, 7:04pm

Fri Sep 18, 6:04pm

Fri Sep 18, 5:05pm

Fri Sep 18, 4:04pm

Fri Sep 18, 3:05pm

Fri Sep 18, 2:04pm

Fri Sep 18, 12:04pm

Fri Sep 18, 11:05am

Fri Sep 18, 10:05am

Fri Sep 18, 9:04am

Fri Sep 18, 8:04am

Fri Sep 18, 7:04am

Fri Sep 18, 6:04am

Fri Sep 18, 5:04am

Fri Sep 18, 4:04am

Fri Sep 18, 3:04am

Fri Sep 18, 2:04am

Fri Sep 18, 1:04am

Fri Sep 18, 12:04am

Thu Sep 17, 11:05pm

Thu Sep 17, 10:04pm

Thu Sep 17, 9:04pm

Thu Sep 17, 8:05pm

Thu Sep 17, 7:04pm

Thu Sep 17, 6:04pm

Thu Sep 17, 5:04pm

Thu Sep 17, 4:04pm

Thu Sep 17, 3:05pm

Thu Sep 17, 2:04pm

Thu Sep 17, 1:04pm

Thu Sep 17, 12:04pm

Thu Sep 17, 11:04am

Thu Sep 17, 10:04am

Thu Sep 17, 9:04am

Thu Sep 17, 8:04am

Thu Sep 17, 7:04am

Thu Sep 17, 6:04am

Thu Sep 17, 5:04am

Thu Sep 17, 4:04am

Thu Sep 17, 3:04am

Thu Sep 17, 2:05am

Thu Sep 17, 1:05am

Thu Sep 17, 12:04am

Wed Sep 16, 11:04pm

Wed Sep 16, 10:04pm

Wed Sep 16, 9:04pm

Wed Sep 16, 8:05pm

Wed Sep 16, 7:04pm

Wed Sep 16, 6:04pm

Wed Sep 16, 5:04pm

Wed Sep 16, 4:04pm

Wed Sep 16, 3:04pm

Wed Sep 16, 2:04pm

Wed Sep 16, 1:04pm

Wed Sep 16, 12:04pm

Wed Sep 16, 11:04am

Wed Sep 16, 10:04am

Wed Sep 16, 9:04am

Wed Sep 16, 8:04am

Wed Sep 16, 7:04am

Wed Sep 16, 6:04am

Wed Sep 16, 5:04am

Wed Sep 16, 4:04am

Wed Sep 16, 3:04am

Wed Sep 16, 2:04am

Wed Sep 16, 1:04am

Wed Sep 16, 12:05am

Tue Sep 15, 11:04pm

Tue Sep 15, 10:04pm

Tue Sep 15, 9:04pm

Tue Sep 15, 8:04pm

Tue Sep 15, 7:04pm

Tue Sep 15, 6:04pm

Tue Sep 15, 5:04pm

Tue Sep 15, 4:05pm

Tue Sep 15, 3:04pm

Tue Sep 15, 2:04pm

Tue Sep 15, 1:04pm

Tue Sep 15, 12:04pm

Tue Sep 15, 11:04am

Tue Sep 15, 10:04am

Tue Sep 15, 9:04am

Tue Sep 15, 8:04am

Tue Sep 15, 7:04am

Tue Sep 15, 6:04am

Tue Sep 15, 5:04am

Tue Sep 15, 4:04am

Tue Sep 15, 3:04am

Tue Sep 15, 2:04am

Tue Sep 15, 1:04am

Tue Sep 15, 12:05am

Mon Sep 14, 11:04pm

Mon Sep 14, 10:04pm

Mon Sep 14, 9:04pm

Mon Sep 14, 8:04pm

Mon Sep 14, 7:04pm

Mon Sep 14, 6:04pm

Mon Sep 14, 5:04pm

Mon Sep 14, 4:05pm

Mon Sep 14, 3:04pm

Mon Sep 14, 2:05pm

Mon Sep 14, 1:04pm

Mon Sep 14, 12:04pm

Mon Sep 14, 11:04am

Mon Sep 14, 10:05am

Mon Sep 14, 9:04am

Mon Sep 14, 8:04am

Mon Sep 14, 7:04am

Mon Sep 14, 6:04am

Mon Sep 14, 5:04am

Mon Sep 14, 4:04am

Mon Sep 14, 3:04am

Mon Sep 14, 2:04am

Mon Sep 14, 1:04am

Mon Sep 14, 12:04am

Sun Sep 13, 11:05pm

Sun Sep 13, 10:04pm

Sun Sep 13, 9:04pm

Sun Sep 13, 8:04pm

Sun Sep 13, 7:05pm

Sun Sep 13, 6:05pm

Sun Sep 13, 5:05pm

Sun Sep 13, 4:04pm

Sun Sep 13, 3:04pm

Sun Sep 13, 2:04pm

Sun Sep 13, 1:04pm

Sun Sep 13, 12:04pm

Sun Sep 13, 11:05am

Sun Sep 13, 10:04am

Sun Sep 13, 9:04am

Sun Sep 13, 8:04am

Sun Sep 13, 7:04am

Sun Sep 13, 6:04am

Sun Sep 13, 5:04am

Sun Sep 13, 4:04am

Sun Sep 13, 3:04am

Sun Sep 13, 2:04am

Sun Sep 13, 1:04am

Sun Sep 13, 12:04am

Sat Sep 12, 11:04pm

Sat Sep 12, 10:04pm

Sat Sep 12, 9:04pm

Sat Sep 12, 8:04pm

Sat Sep 12, 7:05pm

Sat Sep 12, 6:04pm

Sat Sep 12, 5:04pm

Sat Sep 12, 4:05pm

Sat Sep 12, 3:04pm

Sat Sep 12, 2:04pm

Sat Sep 12, 1:05pm

Sat Sep 12, 12:04pm

Sat Sep 12, 11:04am

Sat Sep 12, 10:04am

Sat Sep 12, 9:04am

Sat Sep 12, 8:04am

Meta data:

ID: 3a8376b2-3e4f-47c4-9ad0-c67c8797734d
Link: https://api.weather.gov/products/3a8376b2-3e4f-47c4-9ad0-c67c8797734d